Location: Montbazon
(47.2835°N, 0.6999°E)
Time: 05:57:10
(UTC+00:00)

In-Cosmos 22 Rocket - Pass Details

Date: 08 November 2025
Orbit: 788 x 886 km, 81.2° (Epoch: 16 December)

Event Time Altitude Azimuth Distance (km) Brightness Sun altitude
Rises 06:13:31 0° 194° (SSW) 3,463 7.4 -6.8°
Reaches altitude 10° 06:15:57 10° 196° (SSW) 2,535 6.7 -6.4°
Maximum altitude 06:21:44 76° 282° (WNW) 918 4.3 -5.5°
Drops below altitude 10° 06:27:35 10° 9° (N) 2,557 6.6 -4.5°
Sets 06:30:03 0° 11° (N) 3,495 7.3 -4.2°
